Terminal Aerodrome Forecast
Issued by NWS

Home | Current Version | Previous Version | Text Only | Print | Product List | Glossary On
Versions: 1 2 3 4 5 6 7 8 9 10 11 12 13 14 15 16 17 18 19 20 21 22 23 24 25 26 27 28 29 30 31 32 33
000
FTUS44 KHGX 261953 AAD
TAFUTS
TAF AMD
KUTS 261953Z 2620/2718 15004KT 4SM BR VCSH SCT008 OVC014
      TEMPO 2620/2622 2SM -RA BR OVC007
     FM270300 14007KT 5SM BR BKN010
     FM271500 27006KT 4SM -DZ BR SCT004 BKN010=

USA.gov is the U.S. government's official web portal to all federal, state and local government web resources and services.